Wind_Speed
44 43 41 42 41 40 40 40 39 38 42 46 45 47 47 47 47 48 49 49 51 53 53 57 58 59 59 61 61 64 66 69 74 74 71 71 71 69 68 69 70 66 62 65
50 48 45 48 48 46 46 44 42 43 44 44 45 49 51 49 46 47 49 47 51 51 54 58 59 59 63 64 64 60 50 47 53 58 59 70 77 79 74 73 71 73 69 70
53 52 54 51 50 49 46 47 46 47 44 43 46 51 51 50 48 50 48 48 49 51 54 54 56 55 51 49 44 41 43 49 46 49 52 53 52 67 84 80 77 74 73 74
56 51 48 51 52 52 49 43 46 45 43 42 46 51 48 48 48 46 46 47 47 49 53 55 52 48 47 44 46 43 48 53 43 48 49 50 53 55 60 88 83 78 76 78
53 52 50 50 49 49 48 48 46 45 44 46 49 41 47 45 45 43 43 44 45 49 51 50 46 49 45 45 48 52 52 42 42 42 48 53 50 56 59 65 90 85 81 77
57 51 55 53 49 49 49 49 44 43 44 48 47 38 47 44 38 39 40 42 43 47 48 44 45 50 46 45 50 48 45 38 43 44 42 44 45 52 57 62 73 93 86 80
52 54 48 49 52 53 50 45 42 45 46 46 43 40 47 40 39 37 38 38 40 44 43 42 47 50 42 43 47 47 35 35 38 37 52 56 57 43 57 60 61 85 90 83
43 43 45 44 45 40 41 41 43 44 43 41 42 42 36 34 33 35 36 38 38 41 37 42 46 43 41 44 37 31 24 24 38 45 50 43 48 41 42 59 64 65 90 85
41 33 29 34 39 40 40 42 34 40 44 44 41 36 34 33 30 30 32 35 38 34 34 41 39 41 39 40 34 29 28 29 31 39 42 40 39 36 32 46 62 60 76 86
32 43 32 30 37 37 35 34 37 40 40 36 34 34 34 26 25 27 27 30 29 29 34 37 35 35 36 38 29 26 24 21 31 23 29 36 31 23 23 34 54 47 60 83
25 33 33 33 29 34 30 31 35 33 34 30 30 33 30 27 28 27 28 28 29 30 35 33 35 30 28 31 28 23 25 26 26 30 22 13 13 2 9 18 30 37 43 62
22 27 26 31 29 30 36 38 38 40 31 26 33 33 25 26 28 27 28 30 28 29 30 27 27 25 24 26 26 16 17 21 26 26 19 29 29 7 10 7 13 22 32 51
25 25 26 23 29 31 35 37 40 32 25 30 31 30 27 27 27 28 28 28 26 29 24 24 24 25 27 28 23 12 15 13 23 24 20 10 15 14 13 10 5 8 21 41
28 28 30 31 29 32 38 36 25 21 31 27 26 26 25 26 27 28 26 27 26 25 23 23 22 24 23 26 28 22 14 10 17 18 16 13 8 16 5 13 9 8 14 33
30 34 32 32 20 30 30 19 21 24 26 31 23 23 20 22 24 24 25 22 20 18 17 19 19 21 19 18 20 22 16 13 14 15 8 8 12 11 6 18 12 17 9 16
32 33 31 25 20 30 25 23 23 25 30 31 26 20 22 21 22 22 21 18 16 12 14 16 16 16 12 13 12 11 13 9 4 3 6 8 11 14 9 7 8 4 12 17
37 33 25 30 27 26 30 26 28 30 27 25 25 22 21 20 21 19 14 12 11 10 13 13 14 12 10 8 10 6 8 9 6 2 2 3 5 1 12 10 10 14 12 10
26 23 22 23 23 26 17 21 25 25 22 21 22 23 21 19 20 19 17 15 11 9 11 11 10 9 9 7 10 11 13 14 17 19 19 19 23 20 19 16 15 11 2 12
20 21 19 20 23 19 15 18 23 20 17 21 20 21 21 18 21 21 17 16 16 14 11 12 12 10 9 8 7 5 4 8 9 13 15 16 18 18 18 19 19 19 17 17
12 15 19 19 18 17 17 21 19 20 18 21 22 23 24 24 23 23 21 21 21 18 14 15 16 14 13 11 7 4 2 0 3 5 8 10 11 12 13 14 14 14 15 16
25 24 21 19 19 15 14 16 18 20 20 24 27 28 28 28 26 25 24 24 23 19 17 19 19 17 16 14 11 9 6 4 3 2 4 6 10 14 16 18 19 21 23 24
25 25 21 19 17 14 15 18 20 22 24 26 29 30 29 28 25 26 26 25 25 23 20 22 22 21 19 17 15 13 11 9 7 6 5 10 15 16 18 21 23 24 26 27
19 16 16 17 17 14 14 18 22 26 29 28 28 28 26 25 26 24 25 26 28 25 23 24 24 23 21 18 17 16 14 12 10 7 8 12 16 18 19 21 23 25 27 29
16 14 13 15 14 15 17 21 27 30 32 29 26 24 23 23 22 24 23 27 27 24 23 23 23 23 21 18 18 18 15 13 11 11 12 14 17 21 22 23 25 27 29 30
16 14 13 14 14 15 20 25 28 28 28 27 24 21 20 19 20 20 23 24 22 22 23 23 21 21 21 18 17 16 16 14 13 15 14 16 19 21 22 24 26 27 29 32
13 13 14 13 15 19 24 27 27 25 25 24 23 20 18 19 13 17 20 22 23 23 23 23 20 19 19 19 18 17 18 17 17 18 19 21 23 25 28 30 32 33 34 36
Wind_Direction
264 266 270 268 268 273 275 278 282 286 287 287 292 292 290 292 296 298 294 293 294 295 297 296 296 293 289 286 283 280 275 269 266 263 256 252 251 250 249 249 248 243 242 248
267 266 269 270 270 270 271 274 277 278 282 288 290 287 288 288 290 291 291 293 293 296 296 297 294 291 288 286 283 281 279 280 276 270 264 255 245 242 244 244 244 245 241 240
262 266 267 269 270 270 270 272 273 274 281 283 280 281 282 285 288 289 291 292 296 296 295 294 297 297 294 287 280 280 285 292 285 276 272 268 263 244 236 237 238 241 241 241
261 262 266 267 268 270 270 271 270 275 280 279 276 274 281 283 285 288 290 296 296 294 296 301 304 303 301 296 291 289 295 296 289 289 280 269 265 260 248 232 231 235 237 239
262 265 266 266 267 267 268 269 273 276 274 274 274 273 280 282 287 289 291 292 293 299 305 309 304 302 301 299 296 295 299 288 287 289 282 270 278 264 251 243 229 226 232 235
260 264 263 263 262 263 265 268 271 269 271 274 275 274 280 287 286 285 289 293 302 309 309 305 303 306 301 301 303 301 296 286 291 294 295 279 279 267 243 238 236 226 223 229
260 259 262 264 266 267 270 270 268 267 266 274 270 268 281 283 287 292 295 301 308 305 303 299 302 306 302 303 304 299 299 302 300 302 302 292 280 272 245 235 233 231 220 222
264 263 263 261 262 261 256 254 257 262 269 267 267 269 278 279 283 289 289 288 294 300 294 302 309 310 310 308 305 300 298 311 323 312 305 295 296 273 251 227 226 232 221 216
256 253 265 262 260 256 256 258 262 260 261 263 263 270 276 280 281 285 283 289 299 294 299 312 310 311 314 313 311 300 300 315 330 311 302 291 297 284 250 227 224 225 226 214
254 251 262 268 254 251 252 257 257 257 260 258 262 269 276 274 280 290 292 300 296 294 305 313 310 317 320 315 311 309 313 323 334 328 322 298 289 286 244 232 221 228 227 215
266 258 260 269 266 260 255 239 249 257 255 258 267 275 283 284 282 298 300 300 293 299 311 308 308 318 318 317 317 303 325 321 340 339 335 342 335 119 181 232 230 241 223 218
268 264 262 261 274 265 258 252 261 261 253 260 270 277 287 288 290 297 299 294 289 303 309 309 312 321 329 329 334 325 336 349 356 337 360 60 43 36 166 134 216 230 214 216
268 269 262 266 258 261 244 254 261 249 247 263 268 281 289 289 286 291 291 278 283 305 304 309 320 328 340 342 345 356 336 336 350 343 345 73 61 104 128 62 33 231 217 212
266 269 261 270 254 256 247 249 225 238 252 258 274 282 291 282 284 288 280 273 282 296 300 312 330 341 337 341 347 353 4 345 340 343 343 12 281 59 116 128 89 189 238 207
264 277 267 267 249 240 227 227 244 246 250 264 287 283 292 286 287 282 272 271 285 284 294 306 323 332 332 336 342 352 350 349 332 352 308 330 317 98 120 186 203 136 144 221
278 268 267 220 235 209 207 222 233 246 248 278 288 288 291 294 286 277 269 267 267 276 290 302 318 323 323 337 345 4 6 311 334 17 287 336 317 272 258 165 145 195 207 198
262 254 225 216 215 213 219 234 247 253 267 274 283 290 286 289 282 277 253 249 250 271 286 296 302 300 323 358 7 22 44 44 30 317 263 234 207 260 219 212 175 181 198 229
242 209 217 218 227 235 229 236 250 257 262 274 279 284 286 283 274 274 261 249 247 271 285 282 284 280 293 321 348 9 36 36 43 49 49 45 44 49 50 62 69 77 164 252
204 208 211 220 233 242 242 249 252 261 265 276 277 276 280 281 269 267 261 252 260 266 271 260 261 259 272 285 298 319 20 44 47 53 51 46 42 36 30 28 24 22 14 7
207 218 223 232 240 238 235 244 257 264 267 275 278 278 272 267 268 267 266 265 262 261 255 246 242 250 261 259 254 259 255 91 62 37 35 32 24 20 14 11 7 358 352 346
197 218 233 237 240 238 256 266 269 276 277 275 276 274 272 268 266 263 262 263 264 255 245 236 239 245 246 234 240 248 251 259 290 326 348 357 354 350 347 342 336 334 332 328
205 224 227 236 247 262 257 269 280 283 282 282 281 280 275 270 265 262 258 261 263 255 235 234 237 240 235 234 240 242 246 252 258 270 301 329 334 336 333 331 329 326 323 319
217 223 224 233 242 262 270 278 289 293 292 294 294 290 281 270 262 261 260 260 258 248 232 231 237 237 232 237 245 249 245 240 245 264 303 319 319 318 317 315 312 311 312 312
216 219 223 237 251 265 283 292 292 294 295 299 298 293 282 270 261 259 263 256 245 235 234 235 238 242 239 241 249 251 248 248 260 276 288 295 303 307 309 311 311 310 308 306
219 225 232 245 261 281 288 291 293 295 298 298 296 294 283 268 263 265 256 241 235 232 236 240 240 243 245 252 249 241 244 252 263 271 278 288 292 293 295 297 297 296 297 300
211 227 239 255 274 284 289 292 296 298 298 296 293 283 275 265 261 264 252 245 239 239 241 242 241 243 247 248 244 244 254 257 262 274 281 287 293 298 301 301 302 303 303 301
Height
5761 5764 5765 5763 5764 5765 5764 5763 5762 5760 5756 5753 5751 5751 5752 5751 5749 5748 5745 5742 5737 5732 5730 5727 5723 5718 5715 5710 5709 5705 5702 5698 5694 5695 5699 5701 5704 5707 5712 5715 5720 5725 5730 5716
5753 5754 5754 5752 5753 5753 5753 5754 5753 5751 5746 5746 5742 5741 5741 5740 5740 5738 5733 5730 5726 5723 5719 5713 5709 5704 5699 5693 5687 5682 5678 5675 5672 5668 5669 5673 5677 5683 5690 5695 5701 5706 5714 5714
5739 5742 5741 5741 5743 5743 5742 5742 5742 5740 5739 5737 5732 5731 5733 5733 5730 5726 5722 5719 5715 5710 5705 5699 5694 5688 5683 5677 5672 5668 5665 5660 5655 5651 5652 5653 5653 5658 5664 5671 5681 5688 5695 5696
5726 5729 5728 5727 5730 5730 5732 5730 5728 5729 5729 5726 5722 5717 5723 5723 5720 5716 5712 5707 5702 5698 5691 5685 5680 5675 5669 5663 5659 5655 5651 5645 5641 5637 5635 5634 5636 5638 5639 5645 5657 5669 5676 5681
5716 5715 5716 5715 5717 5717 5720 5718 5718 5717 5715 5714 5710 5707 5714 5712 5710 5705 5700 5696 5691 5685 5679 5674 5669 5664 5658 5653 5648 5642 5636 5631 5629 5624 5619 5616 5615 5615 5619 5623 5631 5644 5655 5665
5699 5701 5700 5703 5704 5704 5706 5706 5707 5705 5703 5705 5700 5697 5702 5700 5699 5695 5691 5685 5679 5674 5670 5665 5660 5655 5648 5642 5636 5629 5623 5620 5616 5609 5602 5598 5593 5591 5594 5600 5606 5616 5631 5646
5684 5687 5690 5690 5692 5693 5694 5697 5694 5693 5692 5697 5691 5688 5692 5691 5687 5683 5679 5673 5670 5668 5664 5660 5654 5647 5639 5632 5626 5620 5614 5607 5601 5595 5589 5577 5568 5568 5569 5575 5585 5592 5609 5628
5673 5678 5677 5679 5680 5682 5683 5682 5682 5682 5685 5687 5682 5680 5684 5682 5679 5674 5671 5669 5667 5662 5657 5653 5646 5638 5630 5623 5617 5610 5606 5600 5592 5586 5572 5560 5548 5547 5546 5555 5565 5572 5590 5610
5662 5667 5667 5669 5670 5670 5672 5674 5676 5674 5675 5674 5674 5675 5675 5672 5671 5669 5666 5663 5658 5654 5651 5645 5638 5629 5621 5613 5608 5604 5599 5594 5586 5576 5560 5548 5540 5533 5533 5541 5550 5559 5574 5594
5654 5655 5659 5659 5661 5660 5662 5666 5665 5664 5665 5665 5666 5666 5666 5666 5665 5662 5658 5654 5651 5649 5644 5638 5632 5624 5616 5607 5602 5598 5592 5586 5580 5570 5558 5542 5534 5528 5529 5534 5543 5556 5567 5582
5646 5647 5650 5651 5652 5652 5655 5655 5655 5657 5657 5658 5658 5659 5658 5657 5655 5652 5649 5647 5645 5642 5638 5633 5627 5620 5614 5605 5596 5593 5588 5583 5576 5568 5556 5543 5535 5529 5531 5539 5547 5551 5559 5575
5638 5637 5640 5644 5644 5646 5646 5648 5648 5647 5652 5652 5650 5648 5651 5649 5646 5644 5643 5641 5639 5636 5632 5628 5622 5616 5609 5602 5594 5588 5584 5581 5575 5568 5559 5547 5540 5534 5532 5539 5544 5551 5558 5574
5630 5630 5631 5634 5636 5637 5640 5639 5640 5643 5643 5645 5643 5644 5643 5640 5639 5638 5637 5635 5634 5631 5627 5623 5618 5611 5605 5599 5593 5586 5583 5579 5576 5572 5564 5554 5550 5544 5549 5549 5543 5553 5563 5575
5623 5623 5623 5624 5625 5628 5628 5631 5635 5636 5637 5638 5640 5635 5635 5634 5633 5631 5630 5629 5627 5625 5622 5619 5614 5609 5604 5598 5592 5586 5582 5579 5578 5575 5572 5568 5559 5559 5563 5560 5552 5558 5569 5580
5615 5614 5614 5615 5616 5618 5621 5626 5627 5629 5630 5630 5633 5629 5628 5628 5626 5624 5624 5623 5621 5620 5618 5615 5611 5608 5603 5598 5593 5587 5582 5579 5578 5576 5574 5572 5569 5564 5563 5566 5569 5568 5570 5579
5606 5607 5607 5609 5611 5611 5613 5618 5620 5623 5624 5624 5623 5623 5622 5620 5619 5619 5618 5616 5616 5615 5614 5611 5608 5606 5602 5597 5594 5590 5585 5581 5579 5576 5574 5572 5571 5571 5572 5568 5570 5570 5571 5578
5599 5599 5600 5604 5604 5605 5609 5616 5616 5617 5618 5617 5617 5617 5615 5614 5613 5613 5613 5611 5610 5610 5609 5607 5605 5603 5601 5598 5594 5590 5587 5583 5580 5577 5574 5573 5571 5571 5570 5571 5570 5572 5574 5577
5592 5593 5595 5598 5601 5602 5609 5610 5610 5611 5612 5612 5611 5610 5609 5608 5608 5609 5608 5608 5606 5606 5605 5604 5601 5600 5598 5596 5593 5591 5587 5585 5582 5579 5577 5574 5572 5570 5570 5569 5570 5571 5572 5574
5587 5590 5593 5595 5598 5601 5602 5604 5605 5606 5608 5607 5606 5604 5603 5603 5603 5604 5602 5602 5602 5601 5600 5600 5598 5597 5595 5594 5592 5590 5588 5586 5584 5582 5580 5579 5577 5576 5575 5574 5573 5572 5573 5574
5587 5589 5592 5592 5594 5596 5600 5600 5601 5602 5603 5600 5599 5598 5598 5597 5598 5597 5596 5596 5595 5595 5594 5594 5595 5594 5592 5591 5590 5588 5587 5585 5583 5582 5581 5580 5579 5578 5577 5576 5576 5576 5575 5575
5584 5587 5588 5590 5590 5593 5595 5596 5596 5597 5600 5594 5593 5592 5591 5590 5591 5590 5589 5589 5589 5587 5588 5588 5589 5589 5588 5588 5587 5586 5584 5582 5581 5579 5579 5578 5577 5575 5574 5573 5572 5571 5571 5569
5581 5583 5585 5586 5587 5590 5591 5590 5591 5590 5588 5587 5584 5583 5582 5581 5582 5581 5581 5581 5581 5580 5580 5582 5583 5583 5583 5583 5583 5581 5580 5579 5577 5576 5575 5573 5572 5570 5569 5567 5566 5566 5565 5565
5578 5580 5581 5583 5585 5585 5586 5586 5584 5582 5581 5578 5576 5574 5573 5573 5573 5573 5573 5573 5572 5572 5573 5574 5576 5577 5577 5577 5577 5576 5575 5574 5573 5571 5570 5569 5568 5567 5565 5564 5563 5562 5559 5557
5574 5576 5579 5580 5581 5580 5580 5580 5578 5576 5572 5570 5569 5566 5565 5565 5565 5565 5565 5565 5565 5565 5566 5567 5569 5570 5571 5570 5570 5570 5569 5569 5568 5567 5565 5565 5564 5562 5560 5558 5556 5554 5552 5550
5572 5575 5576 5576 5576 5576 5576 5575 5573 5569 5566 5564 5562 5560 5559 5559 5559 5559 5559 5559 5560 5560 5561 5561 5562 5563 5564 5565 5565 5564 5564 5563 5563 5563 5561 5560 5559 5557 5555 5553 5551 5549 5546 5542
5569 5570 5571 5571 5573 5572 5571 5569 5565 5562 5560 5557 5555 5555 5554 5554 5554 5554 5555 5555 5555 5555 5555 5555 5556 5557 5558 5559 5559 5559 5559 5558 5557 5556 5555 5553 5550 5548 5546 5543 5540 5538 5535 5532